| time (UTC) | temp C | wind direction | speed KPH | gust KPH | rain 1hr cm | rain 24hr cm | rain mn cm | humidity % | barometer mb |
| 20260502182455 | 27 | 151 | 1.6 | 12.9 | 0.00 | 0.00 | 0.00 | 13 | 927.4 |
| 20260502181954 | 26 | 270 | 0.0 | 9.7 | 0.00 | 0.00 | 0.00 | 14 | 927.6 |
| 20260502181454 | 27 | 78 | 9.7 | 14.5 | 0.00 | 0.00 | 0.00 | 13 | 927.5 |
| 20260502180954 | 27 | 27 | 8.0 | 9.7 | 0.00 | 0.00 | 0.00 | 14 | 927.7 |
| 20260502180454 | 26 | 64 | 4.8 | 16.1 | 0.00 | 0.00 | 0.00 | 14 | 927.9 |
| 20260502170454 | 24 | 59 | 3.2 | 6.4 | 0.00 | 0.00 | 0.00 | 15 | 928.1 |
| 20260502163954 | 25 | 99 | 1.6 | 6.4 | 0.00 | 0.00 | 0.00 | 14 | 928.2 |
| 20260502163454 | 24 | 149 | 3.2 | 8.0 | 0.00 | 0.00 | 0.00 | 14 | 928.4 |
| 20260502162955 | 23 | 186 | 3.2 | 6.4 | 0.00 | 0.00 | 0.00 | 15 | 928.4 |
| 20260502162455 | 23 | 204 | 3.2 | 6.4 | 0.00 | 0.00 | 0.00 | 15 | 928.3 |
| 20260502161955 | 22 | 148 | 3.2 | 9.7 | 0.00 | 0.00 | 0.00 | 16 | 928.3 |
| 20260502161455 | 22 | 206 | 0.0 | 9.7 | 0.00 | 0.00 | 0.00 | 16 | 928.3 |
| 20260502160954 | 23 | 186 | 3.2 | 6.4 | 0.00 | 0.00 | 0.00 | 16 | 928.4 |
| 20260502160454 | 23 | 111 | 0.0 | 6.4 | 0.00 | 0.00 | 0.00 | 16 | 928.3 |
| 20260502151954 | 18 | 223 | 6.4 | 6.4 | 0.00 | 0.00 | 0.00 | 19 | 928.1 |
| 20260502151454 | 18 | 220 | 4.8 | 4.8 | 0.00 | 0.00 | 0.00 | 20 | 928.1 |
| 20260502150954 | 18 | 206 | 3.2 | 3.2 | 0.00 | 0.00 | 0.00 | 21 | 928.1 |
| 20260502150455 | 17 | 216 | 3.2 | 4.8 | 0.00 | 0.00 | 0.00 | 23 | 928.2 |
| 20260502130454 | 8 | 90 | 0.0 | 3.2 | 0.00 | 0.00 | 0.00 | 33 | 927.5 |
| 20260502123455 | 10 | 70 | 3.2 | 4.8 | 0.00 | 0.00 | 0.00 | 33 | 926.9 |
| 20260502122955 | 10 | 66 | 0.0 | 3.2 | 0.00 | 0.00 | 0.00 | 32 | 927.0 |
| 20260502122455 | 10 | 97 | 0.0 | 3.2 | 0.00 | 0.00 | 0.00 | 33 | 927.1 |
| 20260502121954 | 9 | 63 | 3.2 | 3.2 | 0.00 | 0.00 | 0.00 | 33 | 927.0 |
| 20260502121454 | 9 | 90 | 3.2 | 6.4 | 0.00 | 0.00 | 0.00 | 32 | 927.0 |
| 20260502120955 | 10 | 64 | 3.2 | 4.8 | 0.00 | 0.00 | 0.00 | 32 | 927.0 |
| 20260502120454 | 10 | 70 | 0.0 | 3.2 | 0.00 | 0.00 | 0.00 | 31 | 927.0 |
| 20260502115455 | 10 | 73 | 3.2 | 4.8 | 0.00 | 0.00 | 0.00 | 31 | 926.7 |
| 20260502114955 | 10 | 38 | 3.2 | 3.2 | 0.00 | 0.00 | 0.00 | 31 | 926.8 |
| 20260502114454 | 10 | 151 | 3.2 | 3.2 | 0.00 | 0.00 | 0.00 | 31 | 926.8 |
| 20260502113954 | 10 | 59 | 6.4 | 6.4 | 0.00 | 0.00 | 0.00 | 31 | 926.8 |
| 20260502113454 | 10 | 83 | 0.0 | 3.2 | 0.00 | 0.00 | 0.00 | 31 | 926.8 |
| 20260502112955 | 10 | 48 | 3.2 | 3.2 | 0.00 | 0.00 | 0.00 | 31 | 927.0 |
| 20260502112455 | 10 | 145 | 4.8 | 4.8 | 0.00 | 0.00 | 0.00 | 31 | 926.9 |
| 20260502111956 | 11 | 246 | 0.0 | 3.2 | 0.00 | 0.00 | 0.00 | 30 | 926.8 |
| 20260502111455 | 11 | 56 | 3.2 | 4.8 | 0.00 | 0.00 | 0.00 | 30 | 926.8 |
| 20260502110955 | 11 | 26 | 4.8 | 4.8 | 0.00 | 0.00 | 0.00 | 29 | 926.7 |
| 20260502110455 | 11 | 65 | 3.2 | 4.8 | 0.00 | 0.00 | 0.00 | 29 | 926.8 |
| 20260502105955 | 11 | 3.2 | 3.2 | 0.00 | 0.00 | 0.00 | 29 | 926.7 | |
| 20260502105455 | 11 | 45 | 3.2 | 3.2 | 0.00 | 0.00 | 0.00 | 29 | 926.7 |
| 20260502104955 | 12 | 79 | 3.2 | 3.2 | 0.00 | 0.00 | 0.00 | 28 | 926.6 |
| 20260502104455 | 11 | 40 | 3.2 | 3.2 | 0.00 | 0.00 | 0.00 | 29 | 926.6 |
| 20260502103954 | 11 | 118 | 4.8 | 6.4 | 0.00 | 0.00 | 0.00 | 29 | 926.7 |
| 20260502103454 | 11 | 102 | 4.8 | 4.8 | 0.00 | 0.00 | 0.00 | 29 | 926.7 |
| 20260502102955 | 12 | 48 | 3.2 | 4.8 | 0.00 | 0.00 | 0.00 | 27 | 926.5 |
| 20260502102455 | 13 | 81 | 3.2 | 3.2 | 0.00 | 0.00 | 0.00 | 26 | 926.4 |
| 20260502101955 | 13 | 56 | 0.0 | 4.8 | 0.00 | 0.00 | 0.00 | 26 | 926.6 |
| 20260502101454 | 13 | 26 | 0.0 | 4.8 | 0.00 | 0.00 | 0.00 | 25 | 926.6 |
| 20260502100954 | 12 | 50 | 3.2 | 4.8 | 0.00 | 0.00 | 0.00 | 28 | 926.6 |
| 20260502100455 | 12 | 90 | 1.6 | 3.2 | 0.00 | 0.00 | 0.00 | 28 | 926.5 |
| 20260502091455 | 12 | 45 | 3.2 | 3.2 | 0.00 | 0.00 | 0.00 | 28 | 926.7 |
| 20260502090955 | 12 | 66 | 0.0 | 3.2 | 0.00 | 0.00 | 0.00 | 27 | 926.8 |
| 20260502090454 | 13 | 73 | 3.2 | 3.2 | 0.00 | 0.00 | 0.00 | 26 | 926.8 |
| 20260502071455 | 17 | 234 | 4.8 | 8.0 | 0.00 | 0.00 | 0.00 | 21 | 926.7 |
| 20260502070955 | 17 | 250 | 4.8 | 6.4 | 0.00 | 0.00 | 0.00 | 21 | 926.4 |
| 20260502070454 | 18 | 162 | 4.8 | 6.4 | 0.00 | 0.00 | 0.00 | 20 | 926.4 |
| 20260502065955 | 18 | 155 | 6.4 | 6.4 | 0.00 | 0.00 | 0.00 | 20 | 926.4 |
| 20260502065455 | 18 | 168 | 6.4 | 6.4 | 0.00 | 0.00 | 0.00 | 20 | 926.4 |
| 20260502064954 | 18 | 175 | 6.4 | 11.3 | 0.00 | 0.00 | 0.00 | 20 | 926.3 |
| 20260502064455 | 18 | 198 | 4.8 | 6.4 | 0.00 | 0.00 | 0.00 | 20 | 926.4 |
| 20260502063955 | 18 | 144 | 4.8 | 9.7 | 0.00 | 0.00 | 0.00 | 20 | 926.4 |
| 20260502063455 | 18 | 175 | 4.8 | 6.4 | 0.00 | 0.00 | 0.00 | 20 | 926.3 |
| 20260502062955 | 18 | 105 | 0.0 | 4.8 | 0.00 | 0.00 | 0.00 | 20 | 926.2 |
| 20260502062455 | 19 | 198 | 3.2 | 4.8 | 0.00 | 0.00 | 0.00 | 19 | 926.2 |
| 20260502061955 | 19 | 240 | 6.4 | 8.0 | 0.00 | 0.00 | 0.00 | 19 | 926.2 |
| 20260502061454 | 18 | 251 | 1.6 | 6.4 | 0.00 | 0.00 | 0.00 | 20 | 926.3 |
| 20260502060955 | 18 | 235 | 4.8 | 6.4 | 0.00 | 0.00 | 0.00 | 20 | 926.2 |
| 20260502060455 | 18 | 206 | 3.2 | 6.4 | 0.00 | 0.00 | 0.00 | 19 | 926.2 |
| 20260502055954 | 18 | 175 | 3.2 | 4.8 | 0.00 | 0.00 | 0.00 | 20 | 926.1 |
| 20260502055454 | 18 | 209 | 4.8 | 6.4 | 0.00 | 0.00 | 0.00 | 20 | 926.1 |
| 20260502054955 | 18 | 222 | 4.8 | 6.4 | 0.00 | 0.00 | 0.00 | 20 | 926.2 |
| 20260502054455 | 18 | 237 | 4.8 | 4.8 | 0.00 | 0.00 | 0.00 | 21 | 926.1 |
| 20260502053954 | 19 | 174 | 4.8 | 4.8 | 0.00 | 0.00 | 0.00 | 19 | 925.8 |
| 20260502053455 | 20 | 227 | 4.8 | 4.8 | 0.00 | 0.00 | 0.00 | 19 | 926.0 |
| 20260502052954 | 20 | 235 | 3.2 | 4.8 | 0.00 | 0.00 | 0.00 | 19 | 926.1 |
| 20260502052455 | 20 | 232 | 6.4 | 6.4 | 0.00 | 0.00 | 0.00 | 19 | 925.9 |
| 20260502051955 | 19 | 214 | 6.4 | 6.4 | 0.00 | 0.00 | 0.00 | 19 | 926.1 |
| 20260502051455 | 19 | 208 | 4.8 | 8.0 | 0.00 | 0.00 | 0.00 | 19 | 925.8 |
| 20260502050955 | 19 | 209 | 4.8 | 8.0 | 0.00 | 0.00 | 0.00 | 19 | 925.8 |
| 20260502050455 | 22 | 236 | 0.0 | 3.2 | 0.00 | 0.00 | 0.00 | 17 | 925.8 |
| 20260502045955 | 22 | 19 | 3.2 | 6.4 | 0.00 | 0.00 | 0.00 | 16 | 925.8 |
| 20260502045455 | 22 | 37 | 4.8 | 4.8 | 0.00 | 0.00 | 0.00 | 17 | 925.8 |
| 20260502044955 | 23 | 14 | 4.8 | 6.4 | 0.00 | 0.00 | 0.00 | 16 | 925.6 |
| 20260502044454 | 22 | 64 | 4.8 | 8.0 | 0.00 | 0.00 | 0.00 | 17 | 925.7 |
| 20260502043954 | 22 | 29 | 4.8 | 6.4 | 0.00 | 0.00 | 0.00 | 17 | 925.5 |
| 20260502043455 | 21 | 48 | 3.2 | 6.4 | 0.00 | 0.00 | 0.00 | 18 | 925.6 |
| 20260502042954 | 22 | 57 | 4.8 | 6.4 | 0.00 | 0.00 | 0.00 | 17 | 925.4 |
| 20260502042455 | 22 | 54 | 8.0 | 8.0 | 0.00 | 0.00 | 0.00 | 17 | 925.4 |
| 20260502041954 | 22 | 8 | 3.2 | 4.8 | 0.00 | 0.00 | 0.00 | 17 | 925.5 |
| 20260502041455 | 22 | 33 | 6.4 | 6.4 | 0.00 | 0.00 | 0.00 | 17 | 925.3 |
| 20260502040954 | 22 | 35 | 6.4 | 6.4 | 0.00 | 0.00 | 0.00 | 17 | 925.2 |
| 20260502040455 | 23 | 51 | 6.4 | 9.7 | 0.00 | 0.00 | 0.00 | 17 | 925.1 |
| 20260502035955 | 22 | 59 | 4.8 | 6.4 | 0.00 | 0.00 | 0.00 | 17 | 925.3 |
| 20260502035455 | 22 | 29 | 4.8 | 6.4 | 0.00 | 0.00 | 0.00 | 17 | 925.2 |
| 20260502034956 | 22 | 6.4 | 8.0 | 0.00 | 0.00 | 0.00 | 17 | 924.9 | |
| 20260502034455 | 22 | 2 | 4.8 | 9.7 | 0.00 | 0.00 | 0.00 | 17 | 924.9 |
| 20260502033955 | 22 | 14 | 4.8 | 8.0 | 0.00 | 0.00 | 0.00 | 17 | 925.0 |
| 20260502033455 | 23 | 346 | 4.8 | 6.4 | 0.00 | 0.00 | 0.00 | 17 | 924.9 |
| 20260502032954 | 23 | 29 | 4.8 | 6.4 | 0.00 | 0.00 | 0.00 | 17 | 924.8 |
| 20260502032455 | 23 | 51 | 8.0 | 9.7 | 0.00 | 0.00 | 0.00 | 17 | 924.7 |
| 20260502031954 | 23 | 51 | 6.4 | 8.0 | 0.00 | 0.00 | 0.00 | 17 | 924.6 |
| 20260502031454 | 23 | 58 | 3.2 | 6.4 | 0.00 | 0.00 | 0.00 | 16 | 924.5 |
| 20260502030955 | 23 | 56 | 4.8 | 6.4 | 0.00 | 0.00 | 0.00 | 16 | 924.5 |
| 20260502030455 | 24 | 56 | 6.4 | 9.7 | 0.00 | 0.00 | 0.00 | 16 | 924.4 |
| 20260502025955 | 24 | 65 | 8.0 | 14.5 | 0.00 | 0.00 | 0.00 | 16 | 924.5 |
| 20260502025455 | 24 | 64 | 8.0 | 8.0 | 0.00 | 0.00 | 0.00 | 16 | 924.6 |
| 20260502024955 | 25 | 42 | 9.7 | 9.7 | 0.00 | 0.00 | 0.00 | 16 | 924.2 |
| 20260502024455 | 25 | 61 | 9.7 | 14.5 | 0.00 | 0.00 | 0.00 | 16 | 924.3 |
| 20260502023954 | 25 | 62 | 12.9 | 16.1 | 0.00 | 0.00 | 0.00 | 16 | 924.3 |
| 20260502023455 | 25 | 52 | 9.7 | 16.1 | 0.00 | 0.00 | 0.00 | 16 | 924.4 |
| 20260502022955 | 25 | 57 | 9.7 | 14.5 | 0.00 | 0.00 | 0.00 | 16 | 924.3 |
| 20260502022455 | 25 | 50 | 8.0 | 11.3 | 0.00 | 0.00 | 0.00 | 15 | 924.1 |
| 20260502021954 | 26 | 61 | 9.7 | 16.1 | 0.00 | 0.00 | 0.00 | 15 | 924.1 |
| 20260502021454 | 26 | 54 | 8.0 | 8.0 | 0.00 | 0.00 | 0.00 | 15 | 924.0 |
| 20260502020955 | 26 | 38 | 6.4 | 14.5 | 0.00 | 0.00 | 0.00 | 15 | 924.1 |
| 20260502020454 | 26 | 23 | 8.0 | 14.5 | 0.00 | 0.00 | 0.00 | 15 | 924.1 |
| 20260502015955 | 26 | 36 | 6.4 | 9.7 | 0.00 | 0.00 | 0.00 | 15 | 923.8 |
| 20260502015455 | 26 | 19 | 11.3 | 12.9 | 0.00 | 0.00 | 0.00 | 15 | 924.0 |
| 20260502014955 | 27 | 54 | 11.3 | 14.5 | 0.00 | 0.00 | 0.00 | 15 | 923.9 |
| 20260502014455 | 27 | 32 | 9.7 | 25.7 | 0.00 | 0.00 | 0.00 | 14 | 923.9 |
| 20260502013955 | 27 | 33 | 9.7 | 11.3 | 0.00 | 0.00 | 0.00 | 14 | 923.9 |
| 20260502013454 | 27 | 33 | 6.4 | 11.3 | 0.00 | 0.00 | 0.00 | 15 | 924.0 |
| 20260502012955 | 27 | 355 | 8.0 | 9.7 | 0.00 | 0.00 | 0.00 | 15 | 923.8 |
| 20260502012455 | 27 | 3.2 | 16.1 | 0.00 | 0.00 | 0.00 | 15 | 923.8 | |
| 20260502011955 | 27 | 356 | 9.7 | 16.1 | 0.00 | 0.00 | 0.00 | 15 | 923.9 |
| 20260502011455 | 27 | 354 | 8.0 | 22.5 | 0.00 | 0.00 | 0.00 | 15 | 923.8 |
| 20260502010955 | 27 | 359 | 8.0 | 24.1 | 0.00 | 0.00 | 0.00 | 15 | 923.9 |
| 20260502010454 | 27 | 336 | 11.3 | 17.7 | 0.00 | 0.00 | 0.00 | 14 | 923.9 |
| 20260502005955 | 27 | 334 | 6.4 | 16.1 | 0.00 | 0.00 | 0.00 | 14 | 923.9 |
| 20260502005455 | 27 | 325 | 11.3 | 17.7 | 0.00 | 0.00 | 0.00 | 14 | 924.0 |
| 20260502004955 | 28 | 19 | 12.9 | 22.5 | 0.00 | 0.00 | 0.00 | 14 | 923.9 |
| 20260502004455 | 27 | 319 | 9.7 | 14.5 | 0.00 | 0.00 | 0.00 | 15 | 923.9 |
| 20260502003955 | 27 | 11 | 8.0 | 19.3 | 0.00 | 0.00 | 0.00 | 15 | 923.8 |
| 20260502003454 | 27 | 270 | 4.8 | 12.9 | 0.00 | 0.00 | 0.00 | 14 | 923.9 |
| 20260502002955 | 28 | 10 | 12.9 | 12.9 | 0.00 | 0.00 | 0.00 | 14 | 923.8 |
| 20260502002454 | 27 | 293 | 4.8 | 9.7 | 0.00 | 0.00 | 0.00 | 15 | 923.9 |
| 20260502001955 | 28 | 342 | 11.3 | 19.3 | 0.00 | 0.00 | 0.00 | 15 | 924.0 |
| 20260502001456 | 27 | 47 | 9.7 | 19.3 | 0.00 | 0.00 | 0.00 | 15 | 923.9 |
| 20260502000955 | 27 | 309 | 3.2 | 16.1 | 0.00 | 0.00 | 0.00 | 15 | 923.8 |
| 20260502000455 | 27 | 278 | 9.7 | 12.9 | 0.00 | 0.00 | 0.00 | 15 | 924.0 |
| 20260501235954 | 27 | 293 | 8.0 | 22.5 | 0.00 | 0.00 | 0.00 | 15 | 924.1 |
| 20260501235455 | 28 | 291 | 8.0 | 17.7 | 0.00 | 0.00 | 0.00 | 15 | 924.0 |
| 20260501234955 | 27 | 271 | 17.7 | 17.7 | 0.00 | 0.00 | 0.00 | 15 | 924.1 |
| 20260501234455 | 27 | 21 | 16.1 | 16.1 | 0.00 | 0.00 | 0.00 | 15 | 924.1 |
| 20260501233955 | 28 | 315 | 6.4 | 22.5 | 0.00 | 0.00 | 0.00 | 14 | 924.1 |
| 20260501233454 | 27 | 343 | 17.7 | 22.5 | 0.00 | 0.00 | 0.00 | 15 | 924.0 |
| 20260501232955 | 27 | 315 | 4.8 | 27.4 | 0.00 | 0.00 | 0.00 | 15 | 924.1 |
| 20260501232455 | 27 | 256 | 4.8 | 19.3 | 0.00 | 0.00 | 0.00 | 15 | 923.9 |
| 20260501231955 | 27 | 289 | 12.9 | 17.7 | 0.00 | 0.00 | 0.00 | 15 | 924.0 |
| 20260501231456 | 27 | 338 | 4.8 | 12.9 | 0.00 | 0.00 | 0.00 | 15 | 924.3 |
| 20260501230954 | 27 | 308 | 9.7 | 35.4 | 0.00 | 0.00 | 0.00 | 15 | 924.3 |
| 20260501230455 | 27 | 279 | 9.7 | 29.0 | 0.00 | 0.00 | 0.00 | 15 | 924.3 |
| 20260501225954 | 28 | 254 | 17.7 | 24.1 | 0.00 | 0.00 | 0.00 | 15 | 924.3 |
| 20260501225454 | 27 | 346 | 12.9 | 20.9 | 0.00 | 0.00 | 0.00 | 15 | 924.3 |
| 20260501224955 | 27 | 8 | 12.9 | 30.6 | 0.00 | 0.00 | 0.00 | 15 | 924.4 |
| 20260501224455 | 27 | 1 | 6.4 | 27.4 | 0.00 | 0.00 | 0.00 | 15 | 924.7 |
| 20260501223956 | 26 | 357 | 3.2 | 22.5 | 0.00 | 0.00 | 0.00 | 16 | 924.7 |
| 20260501223454 | 27 | 346 | 3.2 | 9.7 | 0.00 | 0.00 | 0.00 | 15 | 924.7 |
| 20260501222955 | 27 | 221 | 0.0 | 9.7 | 0.00 | 0.00 | 0.00 | 15 | 924.8 |
| 20260501222454 | 27 | 52 | 11.3 | 20.9 | 0.00 | 0.00 | 0.00 | 15 | 924.9 |
| 20260501221955 | 27 | 279 | 1.6 | 24.1 | 0.00 | 0.00 | 0.00 | 15 | 924.9 |
| 20260501221455 | 27 | 299 | 0.0 | 19.3 | 0.00 | 0.00 | 0.00 | 15 | 924.8 |
| 20260501220955 | 28 | 341 | 16.1 | 27.4 | 0.00 | 0.00 | 0.00 | 15 | 924.9 |
| 20260501220454 | 28 | 310 | 6.4 | 32.2 | 0.00 | 0.00 | 0.00 | 15 | 924.9 |
| 20260501215955 | 27 | 327 | 12.9 | 24.1 | 0.00 | 0.00 | 0.00 | 15 | 924.9 |
| 20260501215455 | 27 | 305 | 11.3 | 24.1 | 0.00 | 0.00 | 0.00 | 15 | 924.9 |
| 20260501214956 | 27 | 282 | 11.3 | 29.0 | 0.00 | 0.00 | 0.00 | 14 | 925.0 |
| 20260501214454 | 27 | 260 | 32.2 | 35.4 | 0.00 | 0.00 | 0.00 | 15 | 924.8 |
| 20260501213955 | 27 | 22 | 8.0 | 25.7 | 0.00 | 0.00 | 0.00 | 15 | 925.0 |
| 20260501213455 | 26 | 276 | 3.2 | 16.1 | 0.00 | 0.00 | 0.00 | 15 | 925.1 |
| 20260501212955 | 27 | 11 | 8.0 | 19.3 | 0.00 | 0.00 | 0.00 | 15 | 925.2 |
| 20260501212455 | 27 | 12 | 19.3 | 24.1 | 0.00 | 0.00 | 0.00 | 15 | 925.3 |
| 20260501211955 | 27 | 311 | 6.4 | 14.5 | 0.00 | 0.00 | 0.00 | 15 | 925.3 |
| 20260501211454 | 27 | 272 | 16.1 | 32.2 | 0.00 | 0.00 | 0.00 | 15 | 925.2 |
| 20260501210955 | 27 | 349 | 9.7 | 12.9 | 0.00 | 0.00 | 0.00 | 15 | 925.4 |
| 20260501210455 | 26 | 281 | 6.4 | 16.1 | 0.00 | 0.00 | 0.00 | 16 | 925.4 |
| 20260501205955 | 27 | 277 | 16.1 | 29.0 | 0.00 | 0.00 | 0.00 | 15 | 925.6 |
| 20260501205455 | 26 | 11 | 9.7 | 27.4 | 0.00 | 0.00 | 0.00 | 15 | 925.5 |
| 20260501204955 | 27 | 344 | 11.3 | 20.9 | 0.00 | 0.00 | 0.00 | 15 | 925.6 |
| 20260501204455 | 28 | 8.0 | 24.1 | 0.00 | 0.00 | 0.00 | 14 | 925.6 | |
| 20260501203954 | 27 | 289 | 24.1 | 43.5 | 0.00 | 0.00 | 0.00 | 15 | 925.5 |
| 20260501203455 | 27 | 264 | 11.3 | 25.7 | 0.00 | 0.00 | 0.00 | 16 | 925.6 |
| 20260501202955 | 26 | 240 | 4.8 | 30.6 | 0.00 | 0.00 | 0.00 | 16 | 925.7 |
| 20260501202455 | 26 | 236 | 24.1 | 35.4 | 0.00 | 0.00 | 0.00 | 16 | 925.7 |
| 20260501201954 | 26 | 344 | 9.7 | 29.0 | 0.00 | 0.00 | 0.00 | 15 | 925.7 |
| 20260501201455 | 26 | 356 | 12.9 | 33.8 | 0.00 | 0.00 | 0.00 | 16 | 925.8 |
| 20260501200955 | 26 | 197 | 6.4 | 22.5 | 0.00 | 0.00 | 0.00 | 17 | 926.1 |
| 20260501200454 | 26 | 281 | 11.3 | 24.1 | 0.00 | 0.00 | 0.00 | 17 | 925.9 |
| 20260501195956 | 26 | 279 | 8.0 | 27.4 | 0.00 | 0.00 | 0.00 | 17 | 925.9 |
| 20260501195455 | 27 | 321 | 8.0 | 37.0 | 0.00 | 0.00 | 0.00 | 17 | 926.0 |
| 20260501194955 | 27 | 322 | 12.9 | 25.7 | 0.00 | 0.00 | 0.00 | 17 | 925.9 |
| 20260501194454 | 26 | 280 | 9.7 | 12.9 | 0.00 | 0.00 | 0.00 | 17 | 926.1 |
| 20260501193955 | 26 | 295 | 8.0 | 32.2 | 0.00 | 0.00 | 0.00 | 17 | 926.0 |
| 20260501193455 | 26 | 270 | 11.3 | 32.2 | 0.00 | 0.00 | 0.00 | 18 | 926.0 |
| 20260501192955 | 27 | 36 | 11.3 | 22.5 | 0.00 | 0.00 | 0.00 | 17 | 925.9 |
| 20260501192455 | 26 | 315 | 14.5 | 17.7 | 0.00 | 0.00 | 0.00 | 18 | 926.1 |
| 20260501191954 | 26 | 301 | 6.4 | 16.1 | 0.00 | 0.00 | 0.00 | 18 | 926.2 |
| 20260501191455 | 26 | 285 | 9.7 | 30.6 | 0.00 | 0.00 | 0.00 | 18 | 926.4 |
| 20260501190954 | 26 | 292 | 14.5 | 19.3 | 0.00 | 0.00 | 0.00 | 18 | 926.5 |
| 20260501190455 | 26 | 267 | 16.1 | 25.7 | 0.00 | 0.00 | 0.00 | 19 | 926.4 |
| 20260501185955 | 26 | 273 | 12.9 | 19.3 | 0.00 | 0.00 | 0.00 | 18 | 926.5 |
| 20260501185455 | 25 | 350 | 4.8 | 16.1 | 0.00 | 0.00 | 0.00 | 19 | 926.5 |
| 20260501184955 | 25 | 255 | 4.8 | 14.5 | 0.00 | 0.00 | 0.00 | 19 | 926.6 |
| 20260501184455 | 25 | 66 | 3.2 | 9.7 | 0.00 | 0.00 | 0.00 | 19 | 926.6 |
| 20260501183954 | 25 | 244 | 9.7 | 16.1 | 0.00 | 0.00 | 0.00 | 19 | 926.8 |
| 20260501183455 | 25 | 216 | 4.8 | 9.7 | 0.00 | 0.00 | 0.00 | 19 | 926.8 |
| 20260501182955 | 25 | 233 | 12.9 | 12.9 | 0.00 | 0.00 | 0.00 | 19 | 926.8 |